Location: Feydey
(46.3431°N, 7.0106°E)
Time: 11:17:20
(UTC+00:00)

Cosmos 1328 - Pass Details

Date: 18 October 2021
Orbit: 529 x 551 km, 82.5° (Epoch: 26 November)

Event Time Altitude Azimuth Distance (km) Brightness Sun altitude
Rises 18:02:15 0° 353° (N) 2,728 7.5 -14.9°
Reaches altitude 10° 18:04:27 10° 357° (N) 1,833 6.5 -15.3°
Maximum altitude 18:08:27 64° 79° (E) 613 3.7 -16.0°
Drops below altitude 10° 18:12:27 10° 162° (SSE) 1,824 6.3 -16.7°
Sets 18:14:37 0° 165° (SSE) 2,713 7.2 -17.1°
